Year,Month,Day,Hour,Minute,Value (Times are PST for temperature in C)
2014,06,09,07,29,12.60
2014,06,09,07,30,12.60
2014,06,09,07,31,12.70
2014,06,09,07,32,12.70
2014,06,09,07,33,12.70
2014,06,09,07,34,12.70
2014,06,09,07,35,12.70
2014,06,09,07,36,12.70
2014,06,09,07,37,12.70
2014,06,09,07,38,12.70
2014,06,09,07,39,12.80
2014,06,09,07,40,12.80
2014,06,09,07,41,12.80
2014,06,09,07,42,12.80
2014,06,09,07,43,12.80
2014,06,09,07,44,12.90
2014,06,09,07,45,12.90
2014,06,09,07,46,12.90
2014,06,09,07,47,13.00
2014,06,09,07,48,13.00
2014,06,09,07,49,13.10
2014,06,09,07,50,13.10
2014,06,09,07,51,13.10
2014,06,09,07,52,13.20
2014,06,09,07,53,13.20
2014,06,09,07,54,13.20
2014,06,09,07,55,13.20
2014,06,09,07,56,13.30
2014,06,09,07,57,13.30
2014,06,09,07,58,13.30
2014,06,09,07,59,13.30
2014,06,09,08,00,13.30
2014,06,09,08,01,13.30
2014,06,09,08,02,13.30
2014,06,09,08,03,13.30
2014,06,09,08,04,13.30
2014,06,09,08,05,13.30
2014,06,09,08,06,13.30
2014,06,09,08,07,13.30
2014,06,09,08,08,13.30
2014,06,09,08,09,13.30
2014,06,09,08,10,13.40
2014,06,09,08,11,13.40
2014,06,09,08,12,13.40
2014,06,09,08,13,13.40
2014,06,09,08,14,13.40
2014,06,09,08,15,13.40
2014,06,09,08,16,13.50
2014,06,09,08,17,13.50
2014,06,09,08,18,13.50
2014,06,09,08,19,13.60
2014,06,09,08,20,13.60
2014,06,09,08,21,13.70
2014,06,09,08,22,13.70
2014,06,09,08,23,13.80
2014,06,09,08,24,13.90
2014,06,09,08,25,14.00
2014,06,09,08,26,14.10
2014,06,09,08,27,14.10
2014,06,09,08,28,14.10
2014,06,09,08,29,14.20
2014,06,09,08,30,14.20
2014,06,09,08,31,14.20
2014,06,09,08,32,14.20
2014,06,09,08,33,14.10
2014,06,09,08,34,14.10
2014,06,09,08,35,14.10
2014,06,09,08,36,14.10
2014,06,09,08,37,14.00
2014,06,09,08,38,14.00
2014,06,09,08,39,14.00
2014,06,09,08,40,13.90
2014,06,09,08,41,13.90
2014,06,09,08,42,13.90
2014,06,09,08,43,14.00
2014,06,09,08,44,14.00
2014,06,09,08,45,14.00
2014,06,09,08,46,14.10
2014,06,09,08,47,14.10
2014,06,09,08,48,14.10
2014,06,09,08,49,14.10
2014,06,09,08,50,14.10
2014,06,09,08,51,14.10
2014,06,09,08,52,14.10
2014,06,09,08,53,14.20
2014,06,09,08,54,14.20
2014,06,09,08,55,14.20
2014,06,09,08,56,14.30
2014,06,09,08,57,14.30
2014,06,09,08,58,14.40
2014,06,09,08,59,14.40
2014,06,09,09,00,14.40
2014,06,09,09,01,14.40
2014,06,09,09,02,14.40
2014,06,09,09,03,14.50
2014,06,09,09,04,14.50
2014,06,09,09,05,14.50
2014,06,09,09,06,14.50
2014,06,09,09,07,14.60
2014,06,09,09,08,14.50
2014,06,09,09,09,14.60
2014,06,09,09,10,14.60
2014,06,09,09,11,14.60
2014,06,09,09,12,14.70
2014,06,09,09,13,14.70
2014,06,09,09,14,14.80
2014,06,09,09,15,14.80
2014,06,09,09,16,14.90
2014,06,09,09,17,15.00
2014,06,09,09,18,15.00
2014,06,09,09,19,15.10
2014,06,09,09,20,15.10
2014,06,09,09,21,15.20
2014,06,09,09,22,15.20
2014,06,09,09,23,15.20
2014,06,09,09,24,15.20
2014,06,09,09,25,15.20
2014,06,09,09,26,15.20
2014,06,09,09,27,15.20
2014,06,09,09,28,15.20
2014,06,09,09,29,15.20
2014,06,09,09,30,15.20
2014,06,09,09,31,15.30
2014,06,09,09,32,15.30
2014,06,09,09,33,15.30
2014,06,09,09,34,15.40
2014,06,09,09,35,15.40
2014,06,09,09,36,15.40
2014,06,09,09,37,15.40
2014,06,09,09,38,15.40
2014,06,09,09,39,15.40
2014,06,09,09,40,15.40
2014,06,09,09,41,15.40
2014,06,09,09,42,15.40
2014,06,09,09,43,15.40
2014,06,09,09,44,15.50
2014,06,09,09,45,15.60
2014,06,09,09,46,15.60
2014,06,09,09,47,15.60
2014,06,09,09,48,15.70
2014,06,09,09,49,15.60
2014,06,09,09,50,15.60
2014,06,09,09,51,15.60
2014,06,09,09,52,15.70
2014,06,09,09,53,15.70
2014,06,09,09,54,15.70
2014,06,09,09,55,15.80
2014,06,09,09,56,15.80
2014,06,09,09,57,15.90
2014,06,09,09,58,15.90
2014,06,09,09,59,15.90
2014,06,09,10,00,16.00
2014,06,09,10,01,16.00
2014,06,09,10,02,16.10
2014,06,09,10,03,16.10
2014,06,09,10,04,16.20
2014,06,09,10,05,16.20
2014,06,09,10,06,16.30
2014,06,09,10,07,16.30
2014,06,09,10,08,16.30
2014,06,09,10,09,16.30
2014,06,09,10,10,16.30
2014,06,09,10,11,16.30
2014,06,09,10,12,16.30
2014,06,09,10,13,16.40
2014,06,09,10,14,16.40
2014,06,09,10,15,16.40
2014,06,09,10,16,16.50
2014,06,09,10,17,16.60
2014,06,09,10,18,16.60
2014,06,09,10,19,16.70
2014,06,09,10,20,16.70
2014,06,09,10,21,16.70
2014,06,09,10,22,16.80
2014,06,09,10,23,16.80
2014,06,09,10,24,16.80
2014,06,09,10,25,16.80
2014,06,09,10,26,16.80
2014,06,09,10,27,16.90
2014,06,09,10,28,16.90
2014,06,09,10,29,16.90
2014,06,09,10,30,16.90
2014,06,09,10,31,16.80
2014,06,09,10,32,16.80
2014,06,09,10,33,16.80
2014,06,09,10,34,16.80
2014,06,09,10,35,16.80
2014,06,09,10,36,16.80
2014,06,09,10,37,16.70
2014,06,09,10,38,16.70
2014,06,09,10,39,16.70
2014,06,09,10,40,16.70
2014,06,09,10,41,16.60
2014,06,09,10,42,16.70
2014,06,09,10,43,16.70
2014,06,09,10,44,16.70
2014,06,09,10,45,16.80
2014,06,09,10,46,16.70
2014,06,09,10,47,16.70
2014,06,09,10,48,16.70
2014,06,09,10,49,16.70
2014,06,09,10,50,16.70
2014,06,09,10,51,16.60
2014,06,09,10,52,16.50
2014,06,09,10,53,16.40
2014,06,09,10,54,16.40
2014,06,09,10,55,16.40
2014,06,09,10,56,16.50
2014,06,09,10,57,16.50
2014,06,09,10,58,16.50
2014,06,09,10,59,16.50
2014,06,09,11,00,16.60
2014,06,09,11,01,16.60
2014,06,09,11,02,16.60
2014,06,09,11,03,16.60
2014,06,09,11,04,16.60
2014,06,09,11,05,16.60
2014,06,09,11,06,16.70
2014,06,09,11,07,16.70
2014,06,09,11,08,16.70
2014,06,09,11,09,16.70
2014,06,09,11,10,16.80
2014,06,09,11,11,16.80
2014,06,09,11,12,16.80
2014,06,09,11,13,16.80
2014,06,09,11,14,16.80
2014,06,09,11,15,16.80
2014,06,09,11,16,16.80
2014,06,09,11,17,16.80
2014,06,09,11,18,16.80
2014,06,09,11,19,16.80
2014,06,09,11,20,16.80
2014,06,09,11,21,16.90
2014,06,09,11,22,17.00
2014,06,09,11,23,17.00
2014,06,09,11,24,17.10
2014,06,09,11,25,17.10
2014,06,09,11,26,17.00
2014,06,09,11,27,17.00
2014,06,09,11,28,17.00
2014,06,09,11,29,16.90
2014,06,09,11,30,16.90
2014,06,09,11,31,16.90
2014,06,09,11,32,16.90
2014,06,09,11,33,17.00
2014,06,09,11,34,17.00
2014,06,09,11,35,17.10
2014,06,09,11,36,17.20
2014,06,09,11,37,17.30
2014,06,09,11,38,17.30
2014,06,09,11,39,17.30
2014,06,09,11,40,17.30
2014,06,09,11,41,17.30
2014,06,09,11,42,17.20
2014,06,09,11,43,17.20
2014,06,09,11,44,17.20
2014,06,09,11,45,17.10
2014,06,09,11,46,17.10
2014,06,09,11,47,17.10
2014,06,09,11,48,17.10
2014,06,09,11,49,17.10
2014,06,09,11,50,17.10
2014,06,09,11,51,17.10
2014,06,09,11,52,17.10
2014,06,09,11,53,17.10
2014,06,09,11,54,17.20
2014,06,09,11,55,17.20
2014,06,09,11,56,17.30
2014,06,09,11,57,17.30
2014,06,09,11,58,17.40
2014,06,09,11,59,17.30
2014,06,09,12,00,17.30
2014,06,09,12,01,17.30
2014,06,09,12,02,17.30
2014,06,09,12,03,17.30
2014,06,09,12,04,17.40
2014,06,09,12,05,17.40
2014,06,09,12,06,17.40
2014,06,09,12,07,17.30
2014,06,09,12,08,17.30
2014,06,09,12,09,17.20
2014,06,09,12,10,17.20
2014,06,09,12,11,17.20
2014,06,09,12,12,17.20
2014,06,09,12,13,17.20
2014,06,09,12,14,17.20
2014,06,09,12,15,17.20
2014,06,09,12,16,17.20
2014,06,09,12,17,17.20
2014,06,09,12,18,17.30
2014,06,09,12,19,17.30
2014,06,09,12,20,17.30
2014,06,09,12,21,17.30
2014,06,09,12,22,17.30
2014,06,09,12,23,17.30
2014,06,09,12,24,17.20
2014,06,09,12,25,17.20
2014,06,09,12,26,17.20
2014,06,09,12,27,17.20
2014,06,09,12,28,17.20
2014,06,09,12,29,17.30
2014,06,09,12,30,17.30
2014,06,09,12,31,17.30
2014,06,09,12,32,17.40
2014,06,09,12,33,17.40
2014,06,09,12,34,17.40
2014,06,09,12,35,17.40
2014,06,09,12,36,17.50
2014,06,09,12,37,17.50
2014,06,09,12,38,17.60
2014,06,09,12,39,17.60
2014,06,09,12,40,17.70
2014,06,09,12,41,17.70
2014,06,09,12,42,17.70
2014,06,09,12,43,17.60
2014,06,09,12,44,17.60
2014,06,09,12,45,17.60
2014,06,09,12,46,17.60
2014,06,09,12,47,17.60
2014,06,09,12,48,17.60
2014,06,09,12,49,17.70
2014,06,09,12,50,17.80
2014,06,09,12,51,17.80
2014,06,09,12,52,17.90
2014,06,09,12,53,17.90
2014,06,09,12,54,17.90
2014,06,09,12,55,17.80
2014,06,09,12,56,17.80
2014,06,09,12,57,17.70
2014,06,09,12,58,17.70
2014,06,09,12,59,17.70
2014,06,09,13,00,17.70
2014,06,09,13,01,17.80
2014,06,09,13,02,17.80
2014,06,09,13,03,17.90
2014,06,09,13,04,18.00
2014,06,09,13,05,18.00
2014,06,09,13,06,18.10
2014,06,09,13,07,18.00
2014,06,09,13,08,18.00
2014,06,09,13,09,18.00
2014,06,09,13,10,18.00
2014,06,09,13,11,18.00
2014,06,09,13,12,18.10
2014,06,09,13,13,18.10
2014,06,09,13,14,18.20
2014,06,09,13,15,18.20
2014,06,09,13,16,18.30
2014,06,09,13,17,18.30
2014,06,09,13,18,18.40
2014,06,09,13,19,18.40
2014,06,09,13,20,18.50
2014,06,09,13,21,18.50
2014,06,09,13,22,18.40
2014,06,09,13,23,18.30
2014,06,09,13,24,18.20
2014,06,09,13,25,18.10
2014,06,09,13,26,18.10
2014,06,09,13,27,18.10
2014,06,09,13,28,18.10
2014,06,09,13,29,18.10
2014,06,09,13,30,18.10
2014,06,09,13,31,18.00
2014,06,09,13,32,18.00
2014,06,09,13,33,18.10
2014,06,09,13,34,18.10
2014,06,09,13,35,18.20
2014,06,09,13,36,18.20
2014,06,09,13,37,18.30
2014,06,09,13,38,18.40
2014,06,09,13,39,18.50
2014,06,09,13,40,18.60
2014,06,09,13,41,18.50
2014,06,09,13,42,18.40
2014,06,09,13,43,18.30
2014,06,09,13,44,18.20
2014,06,09,13,45,18.20
2014,06,09,13,46,18.10
2014,06,09,13,47,18.10
2014,06,09,13,48,18.00
2014,06,09,13,49,18.00
2014,06,09,13,50,18.10
2014,06,09,13,51,18.20
2014,06,09,13,52,18.30
2014,06,09,13,53,18.50
2014,06,09,13,54,18.60
2014,06,09,13,55,18.70
2014,06,09,13,56,18.60
2014,06,09,13,57,18.60
2014,06,09,13,58,18.60
2014,06,09,13,59,18.60
2014,06,09,14,00,18.60
2014,06,09,14,01,18.60
2014,06,09,14,02,18.60
2014,06,09,14,03,18.70
2014,06,09,14,04,18.70
2014,06,09,14,05,18.80
2014,06,09,14,06,18.80
2014,06,09,14,07,18.80
2014,06,09,14,08,18.90
2014,06,09,14,09,19.00
2014,06,09,14,10,19.00
2014,06,09,14,11,19.10
2014,06,09,14,12,19.20
2014,06,09,14,13,19.30
2014,06,09,14,14,19.40
2014,06,09,14,15,19.30
2014,06,09,14,16,19.30
2014,06,09,14,17,19.20
2014,06,09,14,18,19.10
2014,06,09,14,19,19.10
2014,06,09,14,20,19.10
2014,06,09,14,21,19.10
2014,06,09,14,22,19.10
2014,06,09,14,23,19.20
2014,06,09,14,24,19.20
2014,06,09,14,25,19.20
2014,06,09,14,26,19.20
2014,06,09,14,27,19.20
2014,06,09,14,28,19.30
2014,06,09,14,29,19.30
2014,06,09,14,30,19.20
2014,06,09,14,31,19.30
2014,06,09,14,32,19.40
2014,06,09,14,33,19.50
2014,06,09,14,34,19.60
2014,06,09,14,35,19.70
2014,06,09,14,36,19.80
2014,06,09,14,37,19.80
2014,06,09,14,38,19.70
2014,06,09,14,39,19.60
2014,06,09,14,40,19.50
2014,06,09,14,41,19.40
2014,06,09,14,42,19.40
2014,06,09,14,43,19.50
2014,06,09,14,44,19.50
2014,06,09,14,45,19.60
2014,06,09,14,46,19.60
2014,06,09,14,47,19.50
2014,06,09,14,48,19.50
2014,06,09,14,49,19.40
2014,06,09,14,50,19.40
2014,06,09,14,51,19.50
2014,06,09,14,52,19.50
2014,06,09,14,53,19.50
2014,06,09,14,54,19.50
2014,06,09,14,55,19.50
2014,06,09,14,56,19.50
2014,06,09,14,57,19.50
2014,06,09,14,58,19.60
2014,06,09,14,59,19.60
2014,06,09,15,00,19.60
2014,06,09,15,01,19.40
2014,06,09,15,02,19.30
2014,06,09,15,03,19.20
2014,06,09,15,04,19.10
2014,06,09,15,05,19.10
2014,06,09,15,06,19.20
2014,06,09,15,07,19.20
2014,06,09,15,08,19.20
2014,06,09,15,09,19.30
2014,06,09,15,10,19.30
2014,06,09,15,11,19.30
2014,06,09,15,12,19.30
2014,06,09,15,13,19.40
2014,06,09,15,14,19.40
2014,06,09,15,15,19.50
2014,06,09,15,16,19.50
2014,06,09,15,17,19.50
2014,06,09,15,18,19.50
2014,06,09,15,19,19.50
2014,06,09,15,20,19.40
2014,06,09,15,21,19.40
2014,06,09,15,22,19.40
2014,06,09,15,23,19.40
2014,06,09,15,24,19.40
2014,06,09,15,25,19.30
2014,06,09,15,26,19.20
2014,06,09,15,27,19.20
2014,06,09,15,28,19.20
2014,06,09,15,29,19.30
2014,06,09,15,30,19.30
2014,06,09,15,31,19.40
2014,06,09,15,32,19.50
2014,06,09,15,33,19.60
2014,06,09,15,34,19.70
2014,06,09,15,35,19.60
2014,06,09,15,36,19.60
2014,06,09,15,37,19.50
2014,06,09,15,38,19.60
2014,06,09,15,39,19.60
2014,06,09,15,40,19.60
2014,06,09,15,41,19.60
2014,06,09,15,42,19.60
2014,06,09,15,43,19.60
2014,06,09,15,44,19.50
2014,06,09,15,45,19.60
2014,06,09,15,46,19.60
2014,06,09,15,47,19.70
2014,06,09,15,48,19.70
2014,06,09,15,49,19.60
2014,06,09,15,50,19.60
2014,06,09,15,51,19.50
2014,06,09,15,52,19.50
2014,06,09,15,53,19.40
2014,06,09,15,54,19.40
2014,06,09,15,55,19.40
2014,06,09,15,56,19.40
2014,06,09,15,57,19.40
2014,06,09,15,58,19.40
2014,06,09,15,59,19.40
2014,06,09,16,00,19.40
2014,06,09,16,01,19.50
2014,06,09,16,02,19.50
2014,06,09,16,03,19.50
2014,06,09,16,04,19.50
2014,06,09,16,05,19.40
2014,06,09,16,06,19.30
2014,06,09,16,07,19.30
2014,06,09,16,08,19.20
2014,06,09,16,09,19.20
2014,06,09,16,10,19.20
2014,06,09,16,11,19.20
2014,06,09,16,12,19.20
2014,06,09,16,13,19.20
2014,06,09,16,14,19.20
2014,06,09,16,15,19.30
2014,06,09,16,16,19.30
2014,06,09,16,17,19.20
2014,06,09,16,18,19.20
2014,06,09,16,19,19.20
2014,06,09,16,20,19.20
2014,06,09,16,21,19.20
2014,06,09,16,22,19.20
2014,06,09,16,23,19.20
2014,06,09,16,24,19.20
2014,06,09,16,25,19.20
2014,06,09,16,26,19.20
2014,06,09,16,27,19.20
2014,06,09,16,28,19.20
2014,06,09,16,29,19.20
2014,06,09,16,30,19.10
2014,06,09,16,31,19.00
2014,06,09,16,32,19.00
2014,06,09,16,33,19.10
2014,06,09,16,34,19.10
2014,06,09,16,35,19.10
2014,06,09,16,36,19.00
2014,06,09,16,37,19.00
2014,06,09,16,38,18.90
2014,06,09,16,39,18.90
2014,06,09,16,40,18.80
2014,06,09,16,41,18.80
2014,06,09,16,42,18.90
2014,06,09,16,43,19.00
2014,06,09,16,44,18.90
2014,06,09,16,45,18.90
2014,06,09,16,46,18.90
2014,06,09,16,47,18.90
2014,06,09,16,48,18.80
2014,06,09,16,49,18.80
2014,06,09,16,50,18.80
2014,06,09,16,51,18.80
2014,06,09,16,52,18.70
2014,06,09,16,53,18.70
2014,06,09,16,54,18.70
2014,06,09,16,55,18.80
2014,06,09,16,56,18.80
2014,06,09,16,57,18.90
2014,06,09,16,58,18.90
2014,06,09,16,59,18.90
2014,06,09,17,00,18.90
2014,06,09,17,01,18.90
2014,06,09,17,02,18.80
2014,06,09,17,03,18.80
2014,06,09,17,04,18.80
2014,06,09,17,05,18.80
2014,06,09,17,06,18.80
2014,06,09,17,07,18.90
2014,06,09,17,08,19.00
2014,06,09,17,09,19.00
2014,06,09,17,10,19.00
2014,06,09,17,11,18.90
2014,06,09,17,12,18.80
2014,06,09,17,13,18.80
2014,06,09,17,14,18.80
2014,06,09,17,15,18.80
2014,06,09,17,16,18.70
2014,06,09,17,17,18.70
2014,06,09,17,18,18.60
2014,06,09,17,19,18.60
2014,06,09,17,20,18.50
2014,06,09,17,21,18.50
2014,06,09,17,22,18.60
2014,06,09,17,23,18.60
2014,06,09,17,24,18.60
2014,06,09,17,25,18.50
2014,06,09,17,26,18.40
2014,06,09,17,27,18.40
2014,06,09,17,28,18.50
2014,06,09,17,29,18.40
2014,06,09,17,30,18.40
2014,06,09,17,31,18.50
2014,06,09,17,32,18.50
2014,06,09,17,33,18.50
2014,06,09,17,34,18.50
2014,06,09,17,35,18.50
2014,06,09,17,36,18.50
2014,06,09,17,37,18.60
2014,06,09,17,38,18.60
2014,06,09,17,39,18.50
2014,06,09,17,40,18.50
2014,06,09,17,41,18.50
2014,06,09,17,42,18.40
2014,06,09,17,43,18.50
2014,06,09,17,44,18.50
2014,06,09,17,45,18.50
2014,06,09,17,46,18.50
2014,06,09,17,47,18.50
2014,06,09,17,48,18.50
2014,06,09,17,49,18.40
2014,06,09,17,50,18.40
2014,06,09,17,51,18.30
2014,06,09,17,52,18.30
2014,06,09,17,53,18.20
2014,06,09,17,54,18.20
2014,06,09,17,55,18.20
2014,06,09,17,56,18.20
2014,06,09,17,57,18.20
2014,06,09,17,58,18.20
2014,06,09,17,59,18.30
2014,06,09,18,00,18.20
2014,06,09,18,01,18.20
2014,06,09,18,02,18.20
2014,06,09,18,03,18.30
2014,06,09,18,04,18.30
2014,06,09,18,05,18.30
2014,06,09,18,06,18.30
2014,06,09,18,07,18.30
2014,06,09,18,08,18.30
2014,06,09,18,09,18.20
2014,06,09,18,10,18.20
2014,06,09,18,11,18.20
2014,06,09,18,12,18.20
2014,06,09,18,13,18.20
2014,06,09,18,14,18.20
2014,06,09,18,15,18.20
2014,06,09,18,16,18.20
2014,06,09,18,17,18.20
2014,06,09,18,18,18.20
2014,06,09,18,19,18.20
2014,06,09,18,20,18.20
2014,06,09,18,21,18.20
2014,06,09,18,22,18.20
2014,06,09,18,23,18.20
2014,06,09,18,24,18.20
2014,06,09,18,25,18.20
2014,06,09,18,26,18.10
2014,06,09,18,27,18.10
2014,06,09,18,28,18.00
2014,06,09,18,29,18.00
2014,06,09,18,30,18.10
2014,06,09,18,31,18.00
2014,06,09,18,32,18.10
2014,06,09,18,33,18.10
2014,06,09,18,34,18.10
2014,06,09,18,35,18.10
2014,06,09,18,36,18.10
2014,06,09,18,37,18.10
2014,06,09,18,38,18.10
2014,06,09,18,39,18.00
2014,06,09,18,40,18.00
2014,06,09,18,41,17.90
2014,06,09,18,42,17.90
2014,06,09,18,43,17.90
2014,06,09,18,44,17.90
2014,06,09,18,45,17.90
2014,06,09,18,46,17.90
2014,06,09,18,47,17.80
2014,06,09,18,48,17.80
2014,06,09,18,49,17.80
2014,06,09,18,50,17.70
2014,06,09,18,51,17.70
2014,06,09,18,52,17.70
2014,06,09,18,53,17.70
2014,06,09,18,54,17.60
2014,06,09,18,55,17.60
2014,06,09,18,56,17.60
2014,06,09,18,57,17.60
2014,06,09,18,58,17.60
2014,06,09,18,59,17.60
2014,06,09,19,00,17.60
2014,06,09,19,01,17.60
2014,06,09,19,02,17.60
2014,06,09,19,03,17.50
2014,06,09,19,04,17.50
2014,06,09,19,05,17.40
2014,06,09,19,06,17.40
2014,06,09,19,07,17.30
2014,06,09,19,08,17.30
2014,06,09,19,09,17.30
2014,06,09,19,10,17.30
2014,06,09,19,11,17.40
2014,06,09,19,12,17.40
2014,06,09,19,13,17.40
2014,06,09,19,14,17.40
2014,06,09,19,15,17.40
2014,06,09,19,16,17.40
2014,06,09,19,17,17.40
2014,06,09,19,18,17.30
2014,06,09,19,19,17.30
2014,06,09,19,20,17.20
2014,06,09,19,21,17.20
2014,06,09,19,22,17.20
2014,06,09,19,23,17.20
2014,06,09,19,24,17.20
2014,06,09,19,25,17.20
2014,06,09,19,26,17.10
2014,06,09,19,27,17.10
2014,06,09,19,28,17.10
2014,06,09,19,29,17.10
2014,06,09,19,30,17.10
2014,06,09,19,31,17.10
2014,06,09,19,32,17.10
2014,06,09,19,33,17.10
2014,06,09,19,34,17.10
2014,06,09,19,35,17.10
2014,06,09,19,36,17.10
2014,06,09,19,37,17.10
2014,06,09,19,38,17.10
2014,06,09,19,39,17.10
2014,06,09,19,40,17.10
